{"data":{"norad_id":57894,"epoch":"2026-05-24T23:20:23.992224Z","epoch_age_seconds":73924,"freshness":"FRESH","line1":"1 57894U 23146D   26144.97249991  .00000216  00000+0  17366-4 0  9991","line2":"2 57894  43.0013 243.3202 0001192 279.6506  80.4210 15.27577533148722","mean_motion":15.27577533,"eccentricity":0.0001192,"inclination_deg":43.0013,"raan_deg":243.3202,"arg_perigee_deg":279.6506,"mean_anomaly_deg":80.421,"bstar":1.7366e-5,"rev_number":14872,"period_min":94.266900952123,"perigee_km":482.2386288719,"apogee_km":483.87433739828,"semimajor_km":6861.1934831351,"source":"CELESTRAK","updated_at":"2026-05-25T13:38:18.451930Z"}}